START_TIME,STEP,MOV.,H8,t_acc.,H43,t_acc.,M25,t_acc.,H9,t_acc.
1979-03-08 22:23:16.110 ,0,0,0.,12.0,0.,12.0,0.,12.0,0.,12.0
1979-03-08 22:23:28.110 ,0,0,0.,12.0,0.,12.0,0.,12.0,0.,12.0
1979-03-08 22:23:39.510 ,0,0,0.,12.0,0.,12.0,0.,12.0,0.,12.0
1979-03-08 22:23:51.510 ,0,0,0.,12.0,0.,12.0,0.,12.0,0.,12.0
1979-03-08 22:24:03.510 ,1,0,0.,12.0,0.,12.0,0.,12.0,0.,12.0
1979-03-08 22:24:15.510 ,1,0,0.,12.0,0.,12.0,0.,12.0,0.,12.0
1979-03-08 22:24:27.510 ,2,0,0.,12.0,0.,12.0,0.,12.0,0.,12.0
1979-03-08 22:24:39.510 ,2,0,0.,12.0,0.,12.0,0.,12.0,0.,12.0
1979-03-08 22:24:51.510 ,3,0,0.,12.0,0.,12.0,0.,12.0,0.,12.0
1979-03-08 22:25:03.510 ,3,0,0.,12.0,0.,12.0,0.,12.0,0.,12.0
1979-03-08 22:25:15.510 ,4,0,0.,12.0,0.,12.0,0.,12.0,0.,12.0
1979-03-08 22:25:27.510 ,4,0,0.,12.0,0.,12.0,0.,12.0,0.,12.0
1979-03-08 22:25:39.510 ,5,0,0.,12.0,0.,12.0,0.,12.0,0.,12.0
1979-03-08 22:25:51.510 ,5,0,0.,12.0,0.,12.0,0.,12.0,0.,12.0
1979-03-08 22:26:03.510 ,6,0,0.,12.0,0.,12.0,0.,12.0,0.,12.0
1979-03-08 22:26:15.510 ,6,0,0.,12.0,0.,12.0,0.,12.0,0.,12.0
1979-03-08 22:26:27.510 ,7,0,0.,12.0,0.,12.0,0.,12.0,0.,12.0
1979-03-08 22:26:39.510 ,7,0,0.,12.0,0.,12.0,0.,12.0,0.,12.0
1979-03-08 22:26:51.510 ,7,0,,0,,0,,0,,0
1979-03-08 22:27:03.510 ,7,0,0.,12.0,0.,12.0,0.,12.0,0.,12.0
1979-03-08 22:27:15.510 ,6,0,0.,12.0,0.,12.0,0.,12.0,0.,12.0
1979-03-08 22:27:27.510 ,6,0,0.,12.0,0.,12.0,0.,12.0,0.,12.0
1979-03-08 22:27:39.510 ,5,0,0.,12.0,0.,12.0,0.,12.0,0.,12.0
1979-03-08 22:27:51.510 ,5,0,0.,12.0,0.,12.0,0.,12.0,0.,12.0
1979-03-08 22:28:03.510 ,4,0,0.,12.0,0.,12.0,0.,12.0,0.,12.0
1979-03-08 22:28:15.510 ,4,0,0.,12.0,0.,12.0,0.,12.0,0.,12.0
1979-03-08 22:28:27.510 ,3,0,0.,12.0,0.,12.0,0.,12.0,0.,12.0
1979-03-08 22:28:39.510 ,3,0,0.,12.0,0.,12.0,0.,12.0,0.,12.0
1979-03-08 22:28:51.510 ,2,0,0.,12.0,0.,12.0,0.,12.0,0.,12.0
1979-03-08 22:29:03.510 ,2,0,0.,12.0,0.,12.0,0.,12.0,0.,12.0
1979-03-08 22:29:15.510 ,1,0,0.,12.0,0.,12.0,0.,12.0,0.,12.0
1979-03-08 22:29:27.510 ,1,0,0.,12.0,0.,12.0,0.,12.0,0.,12.0
1979-03-08 22:29:39.510 ,0,0,0.,12.0,0.,12.0,0.,12.0,0.,12.0
1979-03-08 22:29:51.510 ,0,0,0.,12.0,0.,12.0,0.,12.0,0.,12.0
1979-03-08 22:30:03.510 ,0,0,0.,12.0,0.,12.0,0.,12.0,0.,12.0
1979-03-08 22:30:15.510 ,0,0,0.,12.0,0.,12.0,0.,12.0,0.,12.0
1979-03-08 22:30:27.510 ,1,0,0.,12.0,0.,12.0,0.,12.0,0.,12.0
1979-03-08 22:30:39.510 ,1,0,0.,12.0,0.,12.0,0.,12.0,0.,12.0
1979-03-08 22:30:51.510 ,2,0,0.,12.0,0.,12.0,0.,12.0,0.,12.0
1979-03-08 22:31:03.510 ,2,0,0.,12.0,0.,12.0,0.,12.0,0.,12.0
1979-03-08 22:31:15.510 ,3,0,0.,12.0,0.,12.0,0.,12.0,0.,12.0
1979-03-08 22:31:27.510 ,3,0,0.,12.0,0.,12.0,0.,12.0,0.,12.0
1979-03-08 22:31:39.510 ,4,0,0.,12.0,0.,12.0,0.,12.0,0.,12.0
1979-03-08 22:31:51.510 ,4,0,0.,12.0,0.,12.0,0.,12.0,0.,12.0
1979-03-08 22:32:03.510 ,5,0,0.,12.0,0.,12.0,0.,12.0,0.,12.0
1979-03-08 22:32:15.510 ,5,0,0.,12.0,0.,12.0,0.,12.0,0.,12.0
1979-03-08 22:32:27.510 ,6,0,0.,12.0,0.,12.0,0.,12.0,0.,12.0
1979-03-08 22:32:39.510 ,6,0,0.,12.0,0.,12.0,0.,12.0,0.,12.0
1979-03-08 22:32:51.510 ,7,0,0.,12.0,0.,12.0,0.,12.0,0.,12.0
1979-03-08 22:33:03.510 ,7,0,0.,12.0,0.,12.0,0.,12.0,0.,12.0
1979-03-08 22:33:15.510 ,7,0,0.,12.0,0.,12.0,0.,12.0,0.,12.0
1979-03-08 22:33:27.510 ,7,0,0.,12.0,0.,12.0,0.,12.0,0.,12.0
1979-03-08 22:33:39.510 ,6,0,0.,12.0,0.,12.0,0.,12.0,0.,12.0
1979-03-08 22:33:51.510 ,6,0,0.,12.0,0.,12.0,0.,12.0,0.,12.0
1979-03-08 22:34:03.510 ,5,0,0.,12.0,0.,12.0,0.,12.0,0.,12.0
1979-03-08 22:34:15.510 ,5,0,0.,12.0,0.,12.0,0.,12.0,0.,12.0
1979-03-08 22:34:27.510 ,4,0,0.,12.0,0.,12.0,0.,12.0,0.,12.0
1979-03-08 22:34:39.510 ,4,0,0.,12.0,0.,12.0,0.,12.0,0.,12.0
1979-03-08 22:34:51.510 ,3,0,0.,12.0,0.,12.0,0.,12.0,0.,12.0
1979-03-08 22:35:03.510 ,3,0,0.,12.0,0.,12.0,0.,12.0,0.,12.0
1979-03-08 22:35:15.510 ,2,0,0.,12.0,0.,12.0,0.,12.0,0.,12.0
1979-03-08 22:35:27.510 ,2,0,0.,12.0,0.,12.0,0.,12.0,0.,12.0
1979-03-08 22:35:39.510 ,1,0,0.,12.0,0.,12.0,0.,12.0,0.,12.0
1979-03-08 22:35:51.510 ,1,0,0.,12.0,0.,12.0,0.,12.0,0.,12.0
1979-03-08 22:36:03.510 ,0,0,0.,12.0,0.,12.0,0.,12.0,0.,12.0
1979-03-08 22:36:15.510 ,0,0,0.,12.0,0.,12.0,0.,12.0,0.,12.0
1979-03-08 22:36:27.510 ,0,0,0.,12.0,0.,12.0,0.,12.0,0.,12.0
1979-03-08 22:36:39.510 ,0,0,0.,12.0,0.,12.0,0.,12.0,0.,12.0
1979-03-08 22:36:51.510 ,1,0,0.,12.0,0.,12.0,0.,12.0,0.,12.0
1979-03-08 22:37:03.510 ,1,0,0.,12.0,0.,12.0,0.,12.0,0.,12.0
1979-03-08 22:37:15.510 ,2,0,0.,12.0,0.,12.0,0.,12.0,0.,12.0
1979-03-08 22:37:27.510 ,2,0,0.,12.0,0.,12.0,0.,12.0,0.,12.0
1979-03-08 22:37:39.510 ,3,0,0.,12.0,0.,12.0,0.,12.0,0.,12.0
1979-03-08 22:37:51.510 ,3,0,0.,12.0,0.,12.0,0.,12.0,0.,12.0
1979-03-08 22:38:03.510 ,4,0,0.,12.0,0.,12.0,0.,12.0,0.,12.0
1979-03-08 22:38:15.510 ,4,0,0.,12.0,0.,12.0,0.,12.0,0.,12.0
1979-03-08 22:38:27.510 ,5,0,0.,12.0,0.,12.0,0.,12.0,0.,12.0
1979-03-08 22:38:39.510 ,5,0,0.,12.0,0.,12.0,0.,12.0,0.,12.0
1979-03-08 22:38:51.510 ,6,0,0.,12.0,0.,12.0,0.,12.0,0.,12.0
1979-03-08 22:39:03.510 ,6,0,0.,12.0,0.,12.0,0.,12.0,0.,12.0
1979-03-08 22:39:15.510 ,7,0,0.,12.0,0.,12.0,0.,12.0,0.,12.0
1979-03-08 22:39:27.510 ,7,0,0.,12.0,0.,12.0,0.,12.0,0.,12.0
1979-03-08 22:42:27.510 ,0,0,0.,12.0,0.,12.0,0.,12.0,0.,12.0
1979-03-08 22:42:39.510 ,0,0,0.,12.0,0.,12.0,0.,12.0,0.,12.0
1979-03-08 22:42:51.510 ,0,0,0.,12.0,0.,12.0,0.,12.0,0.,12.0
1979-03-08 22:43:03.510 ,0,0,0.,12.0,0.,12.0,0.,12.0,0.,12.0
1979-03-08 22:43:15.510 ,1,0,0.,12.0,0.,12.0,0.,12.0,0.,12.0
1979-03-08 22:43:27.510 ,1,0,0.,12.0,0.,12.0,0.,12.0,0.,12.0
1979-03-08 22:43:39.510 ,2,0,0.,12.0,0.,12.0,0.,12.0,0.,12.0
1979-03-08 22:43:51.510 ,2,0,0.,12.0,0.,12.0,0.,12.0,0.,12.0
1979-03-08 22:44:03.510 ,3,0,0.,12.0,0.,12.0,0.,12.0,0.,12.0
1979-03-08 22:44:15.510 ,3,0,0.,12.0,0.,12.0,0.,12.0,0.,12.0
1979-03-08 22:44:27.510 ,4,0,0.,12.0,0.,12.0,0.,12.0,0.,12.0
1979-03-08 22:44:39.510 ,4,0,0.,12.0,0.,12.0,0.,12.0,0.,12.0
1979-03-08 22:44:51.510 ,5,0,0.,12.0,0.,12.0,0.,12.0,0.,12.0
1979-03-08 22:45:03.510 ,5,0,0.,12.0,0.,12.0,0.,12.0,0.,12.0
1979-03-08 22:55:15.510 ,0,0,0.,12.0,0.,12.0,0.,12.0,0.,12.0
1979-03-08 22:55:27.510 ,0,0,0.,12.0,0.,12.0,0.,12.0,0.,12.0
1979-03-08 22:55:39.510 ,0,0,0.,12.0,0.,12.0,0.,12.0,0.,12.0
1979-03-08 22:55:51.510 ,0,0,0.,12.0,0.,12.0,0.,12.0,0.,12.0
1979-03-08 22:56:03.510 ,1,0,0.,12.0,0.,12.0,0.,12.0,0.,12.0
1979-03-08 22:56:15.510 ,1,0,0.,12.0,0.,12.0,0.,12.0,0.,12.0
1979-03-08 22:56:27.510 ,2,0,1.,12.0,0.,12.0,0.,12.0,0.,12.0
1979-03-08 22:56:39.510 ,2,0,0.,12.0,0.,12.0,0.,12.0,0.,12.0
1979-03-08 22:56:51.510 ,3,0,0.,12.0,0.,12.0,0.,12.0,0.,12.0
1979-03-08 22:57:03.510 ,3,0,0.,12.0,0.,12.0,0.,12.0,0.,12.0
1979-03-08 22:57:15.510 ,4,0,0.,12.0,0.,12.0,0.,12.0,0.,12.0
1979-03-08 22:57:27.510 ,4,0,0.,12.0,0.,12.0,0.,12.0,0.,12.0
1979-03-08 22:57:39.510 ,5,0,0.,12.0,0.,12.0,0.,12.0,0.,12.0
1979-03-08 22:57:51.510 ,5,0,0.,12.0,0.,12.0,0.,12.0,0.,12.0
1979-03-08 22:58:03.510 ,6,0,0.,12.0,0.,12.0,0.,12.0,0.,12.0
1979-03-08 22:58:15.510 ,6,0,0.,12.0,0.,12.0,0.,12.0,0.,12.0
1979-03-08 22:58:27.510 ,7,0,0.,12.0,0.,12.0,0.,12.0,0.,12.0
1979-03-08 22:58:39.510 ,7,0,0.,12.0,0.,12.0,0.,12.0,0.,12.0
1979-03-08 22:58:51.510 ,7,0,0.,12.0,0.,12.0,0.,12.0,0.,12.0
1979-03-08 22:59:03.510 ,7,0,0.,12.0,0.,12.0,0.,12.0,0.,12.0
1979-03-08 22:59:15.510 ,6,0,0.,12.0,0.,12.0,0.,12.0,0.,12.0
1979-03-08 22:59:27.510 ,6,0,0.,12.0,0.,12.0,0.,12.0,0.,12.0
1979-03-08 22:59:39.510 ,5,0,0.,12.0,0.,12.0,0.,12.0,0.,12.0
1979-03-08 22:59:51.510 ,5,0,0.,12.0,0.,12.0,0.,12.0,0.,12.0
1979-03-08 23:00:03.510 ,4,0,0.,12.0,0.,12.0,0.,12.0,0.,12.0
1979-03-08 23:00:15.510 ,4,0,0.,12.0,0.,12.0,0.,12.0,0.,12.0
1979-03-08 23:00:27.510 ,3,0,0.,12.0,0.,12.0,0.,12.0,0.,12.0
1979-03-08 23:00:39.510 ,3,0,0.,12.0,0.,12.0,0.,12.0,0.,12.0
1979-03-08 23:00:51.510 ,2,0,0.,12.0,0.,12.0,0.,12.0,0.,12.0
1979-03-08 23:01:03.510 ,2,0,0.,12.0,0.,12.0,0.,12.0,0.,12.0
1979-03-08 23:01:15.510 ,1,0,0.,12.0,0.,12.0,0.,12.0,0.,12.0
1979-03-08 23:01:27.510 ,1,0,0.,12.0,0.,12.0,0.,12.0,0.,12.0
1979-03-08 23:01:39.510 ,0,0,0.,12.0,0.,12.0,0.,12.0,0.,12.0
1979-03-08 23:01:51.510 ,0,0,0.,12.0,0.,12.0,0.,12.0,0.,12.0
1979-03-08 23:02:03.510 ,0,0,0.,12.0,0.,12.0,0.,12.0,0.,12.0
1979-03-08 23:02:15.510 ,0,0,0.,12.0,0.,12.0,0.,12.0,0.,12.0
1979-03-08 23:02:27.510 ,1,0,0.,12.0,0.,12.0,0.,12.0,0.,12.0
1979-03-08 23:02:39.510 ,1,0,0.,12.0,0.,12.0,0.,12.0,0.,12.0
1979-03-08 23:02:51.510 ,2,0,0.,12.0,0.,12.0,0.,12.0,0.,12.0
1979-03-08 23:03:03.510 ,2,0,0.,12.0,0.,12.0,0.,12.0,0.,12.0
1979-03-08 23:03:15.510 ,3,0,0.,12.0,0.,12.0,0.,12.0,0.,12.0
1979-03-08 23:03:27.510 ,3,0,0.,12.0,0.,12.0,0.,12.0,0.,12.0
1979-03-08 23:03:39.510 ,4,0,0.,12.0,0.,12.0,0.,12.0,0.,12.0
1979-03-08 23:03:51.510 ,4,0,0.,12.0,0.,12.0,0.,12.0,0.,12.0
1979-03-08 23:04:03.510 ,5,0,0.,12.0,0.,12.0,0.,12.0,0.,12.0
1979-03-08 23:04:15.510 ,5,0,0.,12.0,0.,12.0,0.,12.0,0.,12.0
1979-03-08 23:04:27.510 ,6,0,0.,12.0,0.,12.0,0.,12.0,0.,12.0
1979-03-08 23:04:39.510 ,6,0,0.,12.0,0.,12.0,0.,12.0,0.,12.0
1979-03-08 23:04:51.510 ,7,0,0.,12.0,0.,12.0,0.,12.0,0.,12.0
1979-03-08 23:05:03.510 ,7,0,0.,12.0,0.,12.0,0.,12.0,0.,12.0
1979-03-08 23:05:15.510 ,7,0,0.,12.0,0.,12.0,0.,12.0,0.,12.0
1979-03-08 23:05:27.510 ,7,0,0.,12.0,0.,12.0,0.,12.0,0.,12.0
1979-03-08 23:05:39.510 ,6,0,0.,12.0,0.,12.0,0.,12.0,0.,12.0
1979-03-08 23:05:51.510 ,6,0,0.,12.0,0.,12.0,0.,12.0,0.,12.0
1979-03-08 23:06:03.510 ,5,0,0.,12.0,0.,12.0,0.,12.0,0.,12.0
1979-03-08 23:06:15.510 ,5,0,0.,12.0,0.,12.0,0.,12.0,0.,12.0
1979-03-08 23:06:27.510 ,4,0,0.,12.0,0.,12.0,0.,12.0,0.,12.0
1979-03-08 23:06:39.510 ,4,0,0.,12.0,0.,12.0,0.,12.0,0.,12.0
1979-03-08 23:06:51.510 ,3,0,0.,12.0,0.,12.0,0.,12.0,0.,12.0
1979-03-08 23:07:03.510 ,3,0,0.,12.0,0.,12.0,0.,12.0,0.,12.0
1979-03-08 23:07:15.510 ,2,0,0.,12.0,0.,12.0,0.,12.0,0.,12.0
1979-03-08 23:07:27.510 ,2,0,0.,12.0,0.,12.0,0.,12.0,0.,12.0
1979-03-08 23:07:39.510 ,1,0,0.,12.0,0.,12.0,0.,12.0,0.,12.0
1979-03-08 23:07:51.510 ,1,0,0.,12.0,0.,12.0,0.,12.0,0.,12.0
1979-03-08 23:08:03.510 ,0,0,0.,12.0,0.,12.0,0.,12.0,0.,12.0
1979-03-08 23:08:15.510 ,0,0,0.,12.0,0.,12.0,0.,12.0,0.,12.0
1979-03-08 23:08:27.510 ,0,0,0.,12.0,0.,12.0,0.,12.0,0.,12.0
1979-03-08 23:08:39.510 ,0,0,0.,12.0,0.,12.0,0.,12.0,0.,12.0
1979-03-08 23:08:51.510 ,1,0,0.,12.0,0.,12.0,0.,12.0,0.,12.0
1979-03-08 23:09:03.510 ,1,0,0.,12.0,0.,12.0,0.,12.0,0.,12.0
1979-03-08 23:09:15.510 ,2,0,0.,12.0,0.,12.0,0.,12.0,0.,12.0
1979-03-08 23:09:27.510 ,2,0,0.,12.0,0.,12.0,0.,12.0,0.,12.0
1979-03-08 23:09:39.510 ,0,0,,0,,0,,0,,0
1979-03-08 23:09:51.510 ,0,0,,0,,0,,0,,0
1979-03-08 23:10:03.510 ,0,0,,0,,0,,0,,0
1979-03-08 23:10:15.510 ,0,0,,0,,0,,0,,0
1979-03-08 23:10:03.510 ,4,0,0.,12.0,0.,12.0,0.,12.0,0.,12.0
1979-03-08 23:10:15.510 ,4,0,0.,12.0,0.,12.0,0.,12.0,0.,12.0
1979-03-08 23:10:27.510 ,5,0,0.,12.0,0.,12.0,0.,12.0,0.,12.0
1979-03-08 23:10:39.510 ,5,0,0.,12.0,0.,12.0,0.,12.0,0.,12.0
1979-03-08 23:10:51.510 ,6,0,0.,12.0,0.,12.0,0.,12.0,0.,12.0
1979-03-08 23:11:03.510 ,6,0,0.,12.0,0.,12.0,0.,12.0,0.,12.0
1979-03-08 23:11:15.510 ,7,0,0.,12.0,0.,12.0,0.,12.0,0.,12.0
1979-03-08 23:11:27.510 ,7,0,0.,12.0,0.,12.0,0.,12.0,0.,12.0
1979-03-08 23:11:39.510 ,7,0,0.,12.0,0.,12.0,0.,12.0,0.,12.0
1979-03-08 23:11:51.510 ,7,0,0.,12.0,0.,12.0,0.,12.0,0.,12.0
1979-03-08 23:12:03.510 ,6,0,0.,12.0,0.,12.0,0.,12.0,0.,12.0
1979-03-08 23:12:15.510 ,6,0,0.,12.0,0.,12.0,0.,12.0,0.,12.0
1979-03-08 23:12:27.510 ,5,0,,0,,0,,0,,0
1979-03-08 23:12:39.510 ,5,0,0.,12.0,0.,12.0,0.,12.0,0.,12.0
1979-03-08 23:12:51.510 ,4,0,0.,12.0,0.,12.0,0.,12.0,0.,12.0
1979-03-08 23:13:03.510 ,4,0,0.,12.0,0.,12.0,0.,12.0,0.,12.0
1979-03-08 23:13:15.510 ,3,0,0.,12.0,0.,12.0,0.,12.0,0.,12.0
1979-03-08 23:13:27.510 ,3,0,0.,12.0,0.,12.0,0.,12.0,0.,12.0
1979-03-08 23:13:39.510 ,2,0,0.,12.0,0.,12.0,0.,12.0,0.,12.0
1979-03-08 23:13:51.510 ,2,0,0.,12.0,0.,12.0,0.,12.0,0.,12.0
1979-03-08 23:14:03.510 ,1,0,0.,12.0,0.,12.0,0.,12.0,0.,12.0
1979-03-08 23:14:15.510 ,1,0,0.,12.0,0.,12.0,0.,12.0,0.,12.0
1979-03-08 23:14:27.510 ,0,0,0.,12.0,0.,12.0,0.,12.0,0.,12.0
1979-03-08 23:14:39.510 ,0,0,0.,12.0,0.,12.0,0.,12.0,0.,12.0
1979-03-08 23:14:51.510 ,0,0,0.,12.0,0.,12.0,0.,12.0,0.,12.0
1979-03-08 23:15:03.510 ,0,0,0.,12.0,0.,12.0,0.,12.0,0.,12.0
1979-03-08 23:15:15.510 ,1,0,0.,12.0,0.,12.0,0.,12.0,0.,12.0
1979-03-08 23:15:27.510 ,1,0,0.,12.0,0.,12.0,0.,12.0,0.,12.0
1979-03-08 23:15:39.510 ,2,0,0.,12.0,0.,12.0,0.,12.0,0.,12.0
1979-03-08 23:15:51.510 ,2,0,0.,12.0,0.,12.0,0.,12.0,0.,12.0
1979-03-08 23:16:03.510 ,3,0,0.,12.0,0.,12.0,0.,12.0,0.,12.0
1979-03-08 23:16:15.510 ,3,0,0.,12.0,0.,12.0,0.,12.0,0.,12.0
1979-03-08 23:16:27.510 ,4,0,0.,12.0,0.,12.0,0.,12.0,0.,12.0
1979-03-08 23:16:39.510 ,4,0,0.,12.0,0.,12.0,0.,12.0,0.,12.0
1979-03-08 23:16:51.510 ,5,0,0.,12.0,0.,12.0,0.,12.0,0.,12.0
1979-03-08 23:17:03.510 ,5,0,0.,12.0,0.,12.0,0.,12.0,0.,12.0
1979-03-08 23:17:15.510 ,6,0,0.,12.0,0.,12.0,0.,12.0,0.,12.0
1979-03-08 23:17:27.510 ,6,0,0.,12.0,0.,12.0,0.,12.0,0.,12.0
1979-03-08 23:17:39.510 ,7,0,0.,12.0,0.,12.0,0.,12.0,0.,12.0
1979-03-08 23:17:51.510 ,7,0,0.,12.0,0.,12.0,0.,12.0,0.,12.0
1979-03-08 23:18:03.510 ,7,0,0.,12.0,0.,12.0,0.,12.0,0.,12.0
1979-03-08 23:18:15.510 ,7,0,0.,12.0,0.,12.0,0.,12.0,0.,12.0
1979-03-08 23:18:27.510 ,6,0,0.,12.0,0.,12.0,0.,12.0,0.,12.0
1979-03-08 23:18:39.510 ,6,0,0.,12.0,0.,12.0,0.,12.0,0.,12.0
1979-03-08 23:18:51.510 ,5,0,0.,12.0,0.,12.0,0.,12.0,0.,12.0
1979-03-08 23:19:03.510 ,5,0,0.,12.0,0.,12.0,0.,12.0,0.,12.0
1979-03-08 23:19:15.510 ,4,0,0.,12.0,0.,12.0,0.,12.0,0.,12.0
1979-03-08 23:19:27.510 ,4,0,0.,12.0,0.,12.0,0.,12.0,0.,12.0
1979-03-08 23:19:39.510 ,3,0,0.,12.0,0.,12.0,0.,12.0,0.,12.0
1979-03-08 23:19:51.510 ,3,0,0.,12.0,0.,12.0,0.,12.0,0.,12.0
1979-03-08 23:20:03.510 ,2,0,0.,12.0,0.,12.0,0.,12.0,0.,12.0
1979-03-08 23:20:15.510 ,2,0,0.,12.0,0.,12.0,0.,12.0,0.,12.0
1979-03-08 23:20:27.510 ,1,0,0.,12.0,0.,12.0,0.,12.0,0.,12.0
1979-03-08 23:20:39.510 ,1,0,0.,12.0,0.,12.0,0.,12.0,0.,12.0
1979-03-08 23:20:51.510 ,0,0,0.,12.0,0.,12.0,0.,12.0,0.,12.0
1979-03-08 23:21:03.510 ,0,0,0.,12.0,0.,12.0,0.,12.0,0.,12.0
1979-03-08 23:21:15.510 ,0,0,0.,12.0,0.,12.0,0.,12.0,0.,12.0
1979-03-08 23:21:27.510 ,0,0,0.,12.0,0.,12.0,0.,12.0,0.,12.0
1979-03-08 23:21:48.510 ,1,0,,0,,0,,0,,0
1979-03-08 23:22:00.510 ,1,0,0.,12.0,0.,12.0,0.,12.0,0.,12.0
1979-03-08 23:22:03.510 ,2,0,0.,12.0,0.,12.0,0.,12.0,0.,12.0
1979-03-08 23:22:15.510 ,2,0,0.,12.0,0.,12.0,0.,12.0,0.,12.0
1979-03-08 23:22:27.510 ,3,0,0.,12.0,0.,12.0,0.,12.0,0.,12.0
1979-03-08 23:22:39.510 ,3,0,1.,12.0,0.,12.0,0.,12.0,0.,12.0
1979-03-08 23:22:51.510 ,4,0,0.,12.0,0.,12.0,0.,12.0,0.,12.0
1979-03-08 23:23:03.510 ,4,0,0.,12.0,0.,12.0,0.,12.0,0.,12.0
1979-03-08 23:23:15.510 ,5,0,0.,12.0,0.,12.0,0.,12.0,0.,12.0
1979-03-08 23:23:27.510 ,5,0,0.,12.0,0.,12.0,0.,12.0,0.,12.0
1979-03-08 23:23:39.510 ,6,0,0.,12.0,0.,12.0,0.,12.0,0.,12.0
1979-03-08 23:23:51.510 ,6,0,0.,12.0,0.,12.0,0.,12.0,0.,12.0
1979-03-08 23:24:03.510 ,7,0,0.,12.0,0.,12.0,0.,12.0,0.,12.0
1979-03-08 23:24:15.510 ,7,0,0.,12.0,0.,12.0,0.,12.0,0.,12.0
1979-03-08 23:24:27.510 ,7,0,0.,12.0,0.,12.0,0.,12.0,0.,12.0
1979-03-08 23:24:39.510 ,7,0,0.,12.0,0.,12.0,0.,12.0,0.,12.0
1979-03-08 23:24:51.510 ,6,0,0.,12.0,0.,12.0,0.,12.0,0.,12.0
1979-03-08 23:25:03.510 ,6,0,0.,12.0,0.,12.0,0.,12.0,0.,12.0
1979-03-08 23:25:15.510 ,5,0,0.,12.0,0.,12.0,0.,12.0,0.,12.0
1979-03-08 23:25:27.510 ,5,0,0.,12.0,0.,12.0,0.,12.0,0.,12.0
1979-03-08 23:25:39.510 ,4,0,0.,12.0,0.,12.0,0.,12.0,0.,12.0
1979-03-08 23:25:51.510 ,4,0,0.,12.0,0.,12.0,0.,12.0,0.,12.0
1979-03-08 23:26:03.510 ,3,0,0.,12.0,0.,12.0,0.,12.0,0.,12.0
1979-03-08 23:26:15.510 ,3,0,0.,12.0,0.,12.0,0.,12.0,0.,12.0
1979-03-08 23:26:27.510 ,2,0,0.,12.0,0.,12.0,0.,12.0,0.,12.0
1979-03-08 23:26:39.510 ,2,0,0.,12.0,0.,12.0,0.,12.0,0.,12.0
1979-03-08 23:26:51.510 ,1,0,0.,12.0,0.,12.0,0.,12.0,0.,12.0
1979-03-08 23:27:03.510 ,1,0,0.,12.0,0.,12.0,0.,12.0,0.,12.0
1979-03-08 23:27:15.510 ,0,0,0.,12.0,0.,12.0,0.,12.0,0.,12.0
1979-03-08 23:27:27.510 ,0,0,0.,12.0,0.,12.0,0.,12.0,0.,12.0
1979-03-08 23:27:39.510 ,0,0,0.,12.0,0.,12.0,0.,12.0,0.,12.0
1979-03-08 23:27:51.510 ,0,0,0.,12.0,0.,12.0,0.,12.0,0.,12.0
1979-03-08 23:28:03.510 ,1,0,0.,12.0,0.,12.0,0.,12.0,0.,12.0
1979-03-08 23:28:15.510 ,1,0,0.,12.0,0.,12.0,0.,12.0,0.,12.0
1979-03-08 23:28:27.510 ,2,0,0.,12.0,0.,12.0,0.,12.0,0.,12.0
1979-03-08 23:28:39.510 ,2,0,0.,12.0,0.,12.0,0.,12.0,0.,12.0
1979-03-08 23:28:51.510 ,3,0,0.,12.0,0.,12.0,0.,12.0,0.,12.0
1979-03-08 23:29:03.510 ,3,0,0.,12.0,0.,12.0,0.,12.0,0.,12.0
1979-03-08 23:29:15.510 ,4,0,0.,12.0,0.,12.0,0.,12.0,0.,12.0
1979-03-08 23:29:27.510 ,4,0,0.,12.0,0.,12.0,0.,12.0,0.,12.0
1979-03-08 23:29:39.510 ,5,0,0.,12.0,0.,12.0,0.,12.0,0.,12.0
1979-03-08 23:29:51.510 ,5,0,0.,12.0,0.,12.0,0.,12.0,0.,12.0
1979-03-08 23:30:03.510 ,6,0,,0,,0,,0,,0
1979-03-08 23:30:15.510 ,6,0,0.,12.0,0.,12.0,0.,12.0,0.,12.0
1979-03-08 23:30:27.510 ,7,0,0.,12.0,0.,12.0,0.,12.0,0.,12.0
1979-03-08 23:30:39.510 ,7,0,0.,12.0,0.,12.0,0.,12.0,0.,12.0
1979-03-08 23:30:51.510 ,7,0,0.,12.0,0.,12.0,0.,12.0,0.,12.0
1979-03-08 23:31:03.510 ,7,0,0.,12.0,0.,12.0,0.,12.0,0.,12.0
1979-03-08 23:31:15.510 ,6,0,0.,12.0,0.,12.0,0.,12.0,0.,12.0
1979-03-08 23:31:27.510 ,6,0,0.,12.0,0.,12.0,0.,12.0,0.,12.0
1979-03-08 23:31:39.510 ,5,0,0.,12.0,0.,12.0,0.,12.0,0.,12.0
1979-03-08 23:31:51.510 ,5,0,0.,12.0,0.,12.0,0.,12.0,0.,12.0
1979-03-08 23:32:03.510 ,4,0,0.,12.0,0.,12.0,0.,12.0,0.,12.0
1979-03-08 23:32:15.510 ,4,0,0.,12.0,0.,12.0,0.,12.0,0.,12.0
1979-03-08 23:32:27.510 ,3,0,0.,12.0,0.,12.0,0.,12.0,0.,12.0
1979-03-08 23:32:39.510 ,3,0,0.,12.0,0.,12.0,0.,12.0,0.,12.0
1979-03-08 23:32:51.510 ,2,0,0.,12.0,0.,12.0,0.,12.0,0.,12.0
1979-03-08 23:33:03.510 ,2,0,0.,12.0,0.,12.0,0.,12.0,0.,12.0
1979-03-08 23:33:15.510 ,1,0,0.,12.0,0.,12.0,0.,12.0,0.,12.0
1979-03-08 23:33:27.510 ,1,0,0.,12.0,0.,12.0,0.,12.0,0.,12.0
1979-03-08 23:33:39.510 ,0,0,0.,12.0,0.,12.0,0.,12.0,0.,12.0
1979-03-08 23:33:51.510 ,0,0,0.,12.0,0.,12.0,0.,12.0,0.,12.0
1979-03-08 23:34:03.510 ,0,0,0.,12.0,0.,12.0,0.,12.0,0.,12.0
1979-03-08 23:34:15.510 ,0,0,0.,12.0,0.,12.0,0.,12.0,0.,12.0
1979-03-08 23:34:27.510 ,1,0,0.,12.0,0.,12.0,0.,12.0,0.,12.0
1979-03-08 23:34:39.510 ,1,0,0.,12.0,0.,12.0,0.,12.0,0.,12.0
1979-03-08 23:34:51.510 ,2,0,0.,12.0,0.,12.0,0.,12.0,0.,12.0
1979-03-08 23:35:03.510 ,2,0,0.,12.0,0.,12.0,0.,12.0,0.,12.0
1979-03-08 23:35:15.510 ,3,0,0.,12.0,0.,12.0,0.,12.0,0.,12.0
1979-03-08 23:35:27.510 ,3,0,0.,12.0,0.,12.0,0.,12.0,0.,12.0
1979-03-08 23:35:39.510 ,4,0,0.,12.0,0.,12.0,0.,12.0,0.,12.0
1979-03-08 23:35:51.510 ,4,0,0.,12.0,0.,12.0,0.,12.0,0.,12.0
1979-03-08 23:36:03.510 ,5,0,0.,12.0,0.,12.0,0.,12.0,0.,12.0
1979-03-08 23:36:15.510 ,5,0,0.,12.0,0.,12.0,0.,12.0,0.,12.0
1979-03-08 23:36:27.510 ,6,0,0.,12.0,0.,12.0,0.,12.0,0.,12.0
1979-03-08 23:36:39.510 ,6,0,0.,12.0,0.,12.0,0.,12.0,0.,12.0
1979-03-08 23:36:51.510 ,7,0,0.,12.0,0.,12.0,0.,12.0,0.,12.0
1979-03-08 23:37:03.510 ,7,0,0.,12.0,0.,12.0,0.,12.0,0.,12.0
1979-03-08 23:37:15.510 ,7,0,0.,12.0,0.,12.0,0.,12.0,0.,12.0
1979-03-08 23:37:27.510 ,7,0,0.,12.0,0.,12.0,0.,12.0,0.,12.0
1979-03-08 23:37:39.510 ,6,0,0.,12.0,0.,12.0,0.,12.0,0.,12.0
1979-03-08 23:37:51.510 ,6,0,0.,12.0,0.,12.0,0.,12.0,0.,12.0
1979-03-08 23:38:03.510 ,5,0,0.,12.0,0.,12.0,0.,12.0,0.,12.0
1979-03-08 23:38:15.510 ,5,0,0.,12.0,0.,12.0,0.,12.0,0.,12.0
1979-03-08 23:38:27.510 ,4,0,0.,12.0,0.,12.0,0.,12.0,0.,12.0
1979-03-08 23:38:39.510 ,4,0,0.,12.0,0.,12.0,0.,12.0,0.,12.0
1979-03-08 23:38:51.510 ,3,0,0.,12.0,0.,12.0,0.,12.0,0.,12.0
1979-03-08 23:39:03.510 ,3,0,0.,12.0,0.,12.0,0.,12.0,0.,12.0
1979-03-08 23:39:15.510 ,2,0,0.,12.0,0.,12.0,0.,12.0,0.,12.0
1979-03-08 23:39:27.510 ,2,0,0.,12.0,0.,12.0,0.,12.0,0.,12.0
1979-03-08 23:39:39.510 ,1,0,0.,12.0,0.,12.0,0.,12.0,0.,12.0
1979-03-08 23:39:51.510 ,1,0,0.,12.0,0.,12.0,0.,12.0,0.,12.0
1979-03-08 23:40:03.510 ,0,0,0.,12.0,0.,12.0,0.,12.0,0.,12.0
1979-03-08 23:40:15.510 ,0,0,0.,12.0,0.,12.0,0.,12.0,0.,12.0
1979-03-08 23:40:27.510 ,0,0,0.,12.0,0.,12.0,0.,12.0,0.,12.0
1979-03-08 23:40:39.510 ,0,0,0.,12.0,0.,12.0,0.,12.0,0.,12.0
1979-03-08 23:40:51.510 ,1,0,0.,12.0,0.,12.0,0.,12.0,0.,12.0
1979-03-08 23:41:03.510 ,1,0,0.,12.0,0.,12.0,0.,12.0,0.,12.0
1979-03-08 23:41:15.510 ,2,0,0.,12.0,0.,12.0,0.,12.0,0.,12.0
1979-03-08 23:41:27.510 ,2,0,0.,12.0,0.,12.0,0.,12.0,0.,12.0
1979-03-08 23:41:39.510 ,3,0,0.,12.0,0.,12.0,0.,12.0,0.,12.0
1979-03-08 23:41:51.510 ,3,0,0.,12.0,0.,12.0,0.,12.0,0.,12.0
1979-03-08 23:42:03.510 ,4,0,0.,12.0,0.,12.0,0.,12.0,0.,12.0
1979-03-08 23:42:15.510 ,4,0,0.,12.0,0.,12.0,0.,12.0,0.,12.0
1979-03-08 23:42:27.510 ,5,0,0.,12.0,0.,12.0,0.,12.0,0.,12.0
1979-03-08 23:42:39.510 ,5,0,0.,12.0,0.,12.0,0.,12.0,0.,12.0
1979-03-08 23:42:51.510 ,6,0,0.,12.0,0.,12.0,0.,12.0,0.,12.0
1979-03-08 23:43:03.510 ,6,0,0.,12.0,0.,12.0,0.,12.0,0.,12.0
1979-03-08 23:43:15.510 ,7,0,0.,12.0,0.,12.0,0.,12.0,0.,12.0
1979-03-08 23:43:27.510 ,7,0,0.,12.0,0.,12.0,0.,12.0,0.,12.0
1979-03-08 23:43:39.510 ,7,0,0.,12.0,0.,12.0,0.,12.0,0.,12.0
1979-03-08 23:43:51.510 ,7,0,0.,12.0,0.,12.0,0.,12.0,0.,12.0
1979-03-08 23:44:03.520 ,6,0,0.,12.0,0.,12.0,0.,12.0,0.,12.0
1979-03-08 23:44:15.520 ,6,0,0.,12.0,0.,12.0,0.,12.0,0.,12.0
1979-03-08 23:44:27.520 ,5,0,0.,12.0,0.,12.0,0.,12.0,0.,12.0
1979-03-08 23:44:39.520 ,5,0,0.,12.0,0.,12.0,0.,12.0,0.,12.0
1979-03-08 23:44:51.520 ,4,0,0.,12.0,0.,12.0,0.,12.0,0.,12.0
1979-03-08 23:45:03.520 ,4,0,0.,12.0,0.,12.0,0.,12.0,0.,12.0
1979-03-08 23:45:15.520 ,3,0,0.,12.0,0.,12.0,0.,12.0,0.,12.0
1979-03-08 23:45:27.520 ,3,0,0.,12.0,0.,12.0,0.,12.0,0.,12.0
1979-03-08 23:45:39.520 ,2,0,0.,12.0,0.,12.0,0.,12.0,0.,12.0
1979-03-08 23:45:51.520 ,2,0,0.,12.0,0.,12.0,0.,12.0,0.,12.0
1979-03-08 23:46:03.520 ,1,0,0.,12.0,0.,12.0,0.,12.0,0.,12.0
1979-03-08 23:46:15.520 ,1,0,0.,12.0,0.,12.0,0.,12.0,0.,12.0
1979-03-08 23:21:15.510 ,0,0,0.,12.0,0.,12.0,0.,12.0,0.,12.0
1979-03-08 23:21:27.510 ,0,0,0.,12.0,0.,12.0,0.,12.0,0.,12.0
1979-03-08 23:21:48.510 ,1,0,,0,,0,,0,,0
1979-03-08 23:22:00.510 ,1,0,0.,12.0,0.,12.0,0.,12.0,0.,12.0
1979-03-08 23:22:03.510 ,2,0,0.,12.0,0.,12.0,0.,12.0,0.,12.0
1979-03-08 23:22:15.510 ,2,0,0.,12.0,0.,12.0,0.,12.0,0.,12.0
1979-03-08 23:22:27.510 ,3,0,0.,12.0,0.,12.0,0.,12.0,0.,12.0
1979-03-08 23:22:39.510 ,3,0,1.,12.0,0.,12.0,0.,12.0,0.,12.0
1979-03-08 23:22:51.510 ,4,0,0.,12.0,0.,12.0,0.,12.0,0.,12.0
1979-03-08 23:23:03.510 ,4,0,0.,12.0,0.,12.0,0.,12.0,0.,12.0
1979-03-08 23:23:15.510 ,5,0,0.,12.0,0.,12.0,0.,12.0,0.,12.0
1979-03-08 23:23:27.510 ,5,0,0.,12.0,0.,12.0,0.,12.0,0.,12.0
1979-03-08 23:23:39.510 ,6,0,0.,12.0,0.,12.0,0.,12.0,0.,12.0
1979-03-08 23:23:51.510 ,6,0,0.,12.0,0.,12.0,0.,12.0,0.,12.0
1979-03-08 23:24:03.510 ,7,0,0.,12.0,0.,12.0,0.,12.0,0.,12.0
1979-03-08 23:24:15.510 ,7,0,0.,12.0,0.,12.0,0.,12.0,0.,12.0
1979-03-08 23:24:27.510 ,7,0,0.,12.0,0.,12.0,0.,12.0,0.,12.0
1979-03-08 23:24:39.510 ,7,0,0.,12.0,0.,12.0,0.,12.0,0.,12.0
1979-03-08 23:24:51.510 ,6,0,0.,12.0,0.,12.0,0.,12.0,0.,12.0
1979-03-08 23:25:03.510 ,6,0,0.,12.0,0.,12.0,0.,12.0,0.,12.0
1979-03-08 23:25:15.510 ,5,0,0.,12.0,0.,12.0,0.,12.0,0.,12.0
1979-03-08 23:25:27.510 ,5,0,0.,12.0,0.,12.0,0.,12.0,0.,12.0
1979-03-08 23:25:39.510 ,4,0,0.,12.0,0.,12.0,0.,12.0,0.,12.0
1979-03-08 23:25:51.510 ,4,0,0.,12.0,0.,12.0,0.,12.0,0.,12.0
1979-03-08 23:26:03.510 ,3,0,0.,12.0,0.,12.0,0.,12.0,0.,12.0
1979-03-08 23:26:15.510 ,3,0,0.,12.0,0.,12.0,0.,12.0,0.,12.0
1979-03-08 23:26:27.510 ,2,0,0.,12.0,0.,12.0,0.,12.0,0.,12.0
1979-03-08 23:26:39.510 ,2,0,0.,12.0,0.,12.0,0.,12.0,0.,12.0
1979-03-08 23:26:51.510 ,1,0,0.,12.0,0.,12.0,0.,12.0,0.,12.0
1979-03-08 23:27:03.510 ,1,0,0.,12.0,0.,12.0,0.,12.0,0.,12.0
1979-03-08 23:27:15.510 ,0,0,0.,12.0,0.,12.0,0.,12.0,0.,12.0
1979-03-08 23:27:27.510 ,0,0,0.,12.0,0.,12.0,0.,12.0,0.,12.0
1979-03-08 23:27:39.510 ,0,0,0.,12.0,0.,12.0,0.,12.0,0.,12.0
1979-03-08 23:27:51.510 ,0,0,0.,12.0,0.,12.0,0.,12.0,0.,12.0